This demonstration page uses our WeatherBlox Daily Observations layout. Learn more.

Left ArrowRight Arrow

Hourly Observations for February 12, 2016

Temp ( °F °C ) Dew Point ( °F °C ) Humidity (%) Winds ( mph kmh ) Pressure ( in mb ) Visibility ( mi km ) Precip ( " mm )
12:14 am 00:14 Mostly Cloudy 19 -7 10 -12 68 68 SW 6 9 30.33 1027 10 16 N/A
12:34 am 00:34 Cloudy 19 -7 10 -12 68 68 SSW 6 9 30.33 1027 10 16 N/A
12:54 am 00:54 Mostly Cloudy 19 -7 10 -12 68 68 SSW 5 7 30.30 1026 10 16 N/A
1:15 am 01:15 Mostly Cloudy 18 -8 10 -12 73 73 S 3 6 30.30 1026 10 16 N/A
1:34 am 01:34 Partly Cloudy 18 -8 10 -12 73 73 S 3 6 30.30 1026 10 16 N/A
1:54 am 01:54 Partly Cloudy 18 -8 10 -12 73 73 N N/A 30.30 1026 10 16 N/A
2:14 am 02:14 Partly Cloudy 18 -8 12 -11 79 79 N N/A 30.30 1026 10 16 N/A
2:34 am 02:34 Mostly Cloudy 18 -8 10 -12 73 73 N N/A 30.30 1026 10 16 N/A
2:55 am 02:55 Cloudy 18 -8 10 -12 73 73 S 3 6 30.27 1025 10 16 N/A
3:14 am 03:14 Cloudy 18 -8 9 -13 68 68 S 3 6 30.27 1025 10 16 N/A
3:34 am 03:34 Partly Cloudy 18 -8 10 -12 73 73 N N/A 30.27 1025 10 16 N/A
3:55 am 03:55 Partly Cloudy 18 -8 12 -11 79 79 N N/A 30.27 1025 10 16 N/A
4:14 am 04:14 Mostly Cloudy 18 -8 10 -12 73 73 N N/A 30.27 1025 10 16 N/A
4:34 am 04:34 Mostly Cloudy 18 -8 12 -11 79 79 N N/A 30.27 1025 10 16 N/A
4:55 am 04:55 Cloudy 19 -7 10 -12 68 68 N N/A 30.27 1025 10 16 N/A
5:14 am 05:14 Cloudy 19 -7 10 -12 68 68 N N/A 30.27 1025 10 16 N/A
5:34 am 05:34 Cloudy 19 -7 10 -12 68 68 N N/A 30.27 1025 10 16 N/A
5:55 am 05:55 Cloudy 19 -7 10 -12 68 68 N N/A 30.27 1025 10 16 N/A
6:14 am 06:14 Cloudy 19 -7 10 -12 68 68 S 3 6 30.27 1025 10 16 N/A
6:34 am 06:34 Cloudy 19 -7 12 -11 73 73 N N/A 30.27 1025 10 16 N/A
6:55 am 06:55 Cloudy 19 -7 12 -11 73 73 S 3 6 30.27 1025 10 16 N/A
7:14 am 07:14 Cloudy 19 -7 12 -11 73 73 N N/A 30.27 1025 10 16 N/A
7:34 am 07:34 Cloudy 19 -7 10 -12 68 68 N N/A 30.27 1025 10 16 N/A
7:55 am 07:55 Cloudy 19 -7 10 -12 68 68 SSW 3 6 30.27 1025 10 16 N/A
8:14 am 08:14 Cloudy 19 -7 10 -12 68 68 SSW 5 7 30.27 1025 10 16 N/A
8:34 am 08:34 Cloudy 19 -7 10 -12 68 68 SSW 5 7 30.27 1025 10 16 N/A
8:55 am 08:55 Cloudy 21 -6 9 -13 58 58 SW 5 7 30.27 1025 10 16 N/A
9:14 am 09:14 Cloudy 21 -6 9 -13 58 58 WSW 5 7 30.27 1025 10 16 N/A
9:34 am 09:34 Cloudy 23 -5 10 -12 58 58 SW 7 11 30.24 1024 10 16 N/A
9:55 am 09:55 Cloudy 23 -5 9 -13 54 54 WSW 6 9 30.24 1024 10 16 N/A
10:14 am 10:14 Cloudy 23 -5 9 -13 54 54 WSW 9 15 30.24 1024 10 16 N/A
10:35 am 10:35 Cloudy 25 -4 10 -12 54 54 WSW 12 19 30.24 1024 10 16 N/A
10:54 am 10:54 Cloudy 25 -4 9 -13 50 50 W 12 19 30.24 1024 10 16 N/A
11:14 am 11:14 Cloudy 25 -4 10 -12 54 54 W 12 19 30.24 1024 10 16 N/A
11:35 am 11:35 Cloudy 25 -4 12 -11 59 59 W 15 24 30.24 1024 10 16 N/A
11:54 am 11:54 Cloudy 25 -4 12 -11 59 59 W 13 20 30.24 1024 10 16 N/A
12:14 pm 12:14 Cloudy 25 -4 14 -10 63 63 WNW 14 22 30.24 1024 10 16 N/A
12:35 pm 12:35 Cloudy 27 -3 14 -10 59 59 WNW 14 22 30.18 1022 10 16 N/A
12:54 pm 12:54 Cloudy 27 -3 14 -10 59 59 WNW 17 28 30.18 1022 10 16 N/A
1:14 pm 13:14 Cloudy 27 -3 16 -9 64 64 W 16 26 30.18 1022 10 16 N/A
1:35 pm 13:35 Cloudy 27 -3 16 -9 64 64 W 15 24 30.18 1022 10 16 N/A
1:54 pm 13:54 Cloudy 27 -3 16 -9 64 64 W 16 26 30.15 1021 10 16 N/A
2:14 pm 14:14 Cloudy 27 -3 18 -8 69 69 W 22 35 30.18 1022 10 16 N/A
2:35 pm 14:35 Cloudy 25 -4 18 -8 74 74 W 16 26 30.15 1021 7 11 N/A
2:54 pm 14:54 Cloudy 25 -4 18 -8 74 74 W 13 20 30.15 1021 5 8 N/A
3:14 pm 15:14 Cloudy 25 -4 19 -7 80 80 W 16 26 30.15 1021 3 5 N/A
3:35 pm 15:35 Cloudy 25 -4 19 -7 80 80 W 16 26 30.15 1021 2 3 N/A
3:54 pm 15:54 Cloudy 25 -4 19 -7 80 80 WNW 15 24 30.18 1022 3 4 N/A
4:14 pm 16:14 Cloudy 25 -4 19 -7 80 80 WNW 20 31 30.18 1022 4 6 N/A
4:34 pm 16:34 Cloudy 25 -4 19 -7 80 80 WNW 13 20 30.18 1022 2 2 N/A
4:54 pm 16:54 Cloudy 25 -4 19 -7 80 80 NW 15 24 30.18 1022 7 11 N/A
5:15 pm 17:15 Cloudy 25 -4 16 -9 69 69 NW 18 30 30.24 1024 7 11 N/A
5:34 pm 17:34 Cloudy 23 -5 12 -11 63 63 WNW 20 31 30.24 1024 10 16 N/A
5:55 pm 17:55 Cloudy 23 -5 12 -11 63 63 NW 16 26 30.24 1024 10 16 N/A
6:14 pm 18:14 Cloudy 23 -5 10 -12 58 58 WNW 18 30 30.27 1025 10 16 N/A
6:35 pm 18:35 Cloudy 23 -5 10 -12 58 58 WNW 20 31 30.27 1025 10 16 N/A
6:55 pm 18:55 Mostly Cloudy 21 -6 9 -13 58 58 WNW 17 28 30.27 1025 10 16 N/A
7:14 pm 19:14 Cloudy 21 -6 10 -12 63 63 NW 18 30 30.27 1025 10 16 N/A
7:35 pm 19:35 Cloudy 21 -6 9 -13 58 58 WNW 14 22 30.27 1025 10 16 N/A
7:55 pm 19:55 Cloudy 21 -6 9 -13 58 58 WNW 24 39 30.27 1025 10 16 N/A
8:14 pm 20:14 Mostly Cloudy 21 -6 9 -13 58 58 NW 16 26 30.30 1026 10 16 N/A
8:35 pm 20:35 Mostly Cloudy 19 -7 7 -14 58 58 NW 22 35 30.30 1026 10 16 N/A
8:55 pm 20:55 Partly Cloudy 19 -7 5 -15 53 53 NW 15 24 30.33 1027 10 16 N/A
9:14 pm 21:14 Clear 18 -8 5 -15 58 58 NW 14 22 30.33 1027 10 16 N/A
9:35 pm 21:35 Clear 18 -8 5 -15 58 58 NW 14 22 30.33 1027 10 16 N/A
9:55 pm 21:55 Clear 18 -8 5 -15 58 58 NW 14 22 30.33 1027 10 16 N/A
10:14 pm 22:14 Partly Cloudy 18 -8 5 -15 58 58 NW 13 20 30.36 1028 10 16 N/A
10:34 pm 22:34 Mostly Cloudy 18 -8 7 -14 62 62 NW 13 20 30.36 1028 10 16 N/A
10:55 pm 22:55 Mostly Cloudy 18 -8 7 -14 62 62 NW 16 26 30.36 1028 10 16 N/A
11:14 pm 23:14 Partly Cloudy 18 -8 7 -14 62 62 NW 16 26 30.39 1029 10 16 N/A
11:34 pm 23:34 Cloudy 18 -8 7 -14 62 62 NNW 13 20 30.39 1029 10 16 N/A
11:55 pm 23:55 Cloudy 16 -9 1 -17 53 53 NW 21 33 30.39 1029 10 16 N/A

Powered by AerisWeather